This is the latest recevied weather packets stored in our database for station/object EA5EN. If no packets are shown the sender has not sent any weather packets the latest 10 day(s).
| Time | Temp. | Humidity | Pressure | Rain* | Wind** | Luminosity | Snow |
|---|---|---|---|---|---|---|---|
| 1777987283 | 26.67° C | 31% | 1010 hPa | 0 mm | - | - | - |
| 1777985447 | 26.67° C | 33% | 1010.3 hPa | 0 mm | - | - | - |
| 1777983632 | 27.22° C | 30% | 1010.7 hPa | 0 mm | - | - | - |
| 1777976429 | 24.44° C | 32% | 1012 hPa | 0 mm | - | - | - |
| 1777975823 | 23.89° C | 33% | 1012.1 hPa | 0 mm | - | - | - |
| 1777974673 | 23.89° C | 33% | 1012.1 hPa | 0 mm | - | - | - |
| 1777974068 | 23.33° C | 35% | 1012.1 hPa | 0 mm | - | - | - |
| 1777972251 | 22.22° C | 38% | 1012.1 hPa | 0 mm | - | - | - |
| 1777969830 | 21.11° C | 41% | 1012.2 hPa | 0 mm | - | - | - |
| 1777969225 | 21.67° C | 42% | 1012.3 hPa | 0 mm | - | - | - |
| 1777968620 | 21.11° C | 43% | 1012.4 hPa | 0 mm | - | - | - |
| 1777968075 | 20.56° C | 44% | 1012.3 hPa | 0 mm | - | - | - |
| 1777962648 | 17.22° C | 57% | 1012.3 hPa | 0 mm | - | - | - |
| 1777960872 | 16.11° C | 59% | 1012.1 hPa | 0 mm | - | - | - |
| 1777959056 | 15.56° C | 61% | 1012 hPa | 0 mm | - | - | - |
| 1777951248 | 15.56° C | 71% | 1011.8 hPa | 0 mm | - | - | - |
| 1777950643 | 15.56° C | 72% | 1011.9 hPa | 0 mm | - | - | - |
| 1777949433 | 16.11° C | 78% | 1011.9 hPa | 0 mm | - | - | - |
| 1777939838 | 17.78° C | 82% | 1012.4 hPa | 0 mm | - | - | - |
| 1777929670 | 19.44° C | 74% | 1011.9 hPa | 0 mm | - | - | - |
| 1777925433 | 21.67° C | 57% | 1010.8 hPa | 0 mm | - | - | - |
| 1777921256 | 23.89° C | 51% | 1009.9 hPa | 0 mm | - | - | - |
| 1777918876 | 24.44° C | 48% | 1009.8 hPa | 0 mm | - | - | - |
| 1777918230 | 25° C | 47% | 1009.7 hPa | 0 mm | - | - | - |
| 1777908668 | 27.22° C | 38% | 1009.1 hPa | 0 mm | - | - | - |
* Rain latest hour (hover to see other rain measurements)
** Current wind speed in m/s (hover to see current wind gust speed)